SCP
0 0 0 0 0 0 0 0 0 0 0 0 0 0 0 0 0 0 0 0 0 0 0 0 0 0 0 0 0 0 0 0 0 0 0 0 0 0 0 0 0 0 0 0
0 0 0 0 0 0 0 0 0 0 0 0 0 0 0 0 0 0 0 0 0 0 0 0 0 0 0 0 0 0 0 0 0 0 0 0 0 0 0 0 0 0 0 0
0 0 0 0 0 0 0 0 0 0 0 0 0 0 0 0 0 0 0 0 0 0 0 0 0 0 0 0 0 0 0 0 0 0 0 0 0 0 0 0 0 0 0 0
0 0 0 0 0 0 0 0 0 0 0 0 0 0 0 0 0 0 0 0 0 0 0 0 0 0 0 0 0 0 0 0 0 0 0 0 0 0 0 0 0 0 0 0
0 0 0 0 0 0 0 0 0 0 0 0 0 0 0 0 0 0 0 0 0 0 0 0 0 0 0 0 0 0 0 0 0 0 0 0 0 0 0 0 0 0 0 0
0 0 0 0 0 0 0 0 0 0 0 0 0 0 0 0 0 0 0 0 0 0 0 0 0 0 0 0 0 0 0 0 0 0 0 0 0 0 0 0 0 0 0 0
0 0 0 0 0 0 0 0 0 0 0 0 0 0 0 0 0 0 0 0 0 0 0 0 0 0 0 0 0 0 0 0 0 0 0 0 0 0 0 0 0 0 0 0
0 0 0 0 0 0 0 0 0 0 0 0 0 0 0 0 0 0 0 0 0 0 0 0 0 0 0 0 0 0 0 0 0 0 0 0 0 0 0 0 0 0 0 0
0 0 0 0 0 0 0 0 0 0 0 0 0 0 0 0 0 0 0 0 0 0 0 0 0 0 0 0 0 0 0 0 0 0 0 0 0 0 0 0 0 0 0 0
0 0 0 0 0 0 0 0 0 0 0 0 0 0 0 0 0 0 0 0 0 0 0 0 0 0 0 0 0 0 0 0 0 0 0 0 0 0 0 0 0 0 0 0
0 0 0 0 0 0 0 0 0 0 0 0 0 0 0 0 0 0 0 0 0 0 0 0 0 0 0 0 0 0 0 0 0 0 0 0 0 0 0 0 0 0 0 0
0 0 0 0 0 0 0 0 0 0 0 0 0 0 0 0 0 0 0 0 0 0 0 0 0 0 0 0 0 0 0 0 0 0 0 0 0 0 0 0 0 0 0 0
0 0 0 0 0 0 0 0 0 0 0 0 0 0 0 0 0 0 0 0 0 0 0 0 0 0 0 0 0 0 0 0 0 0 0 0 0 0 0 0 0 0 0 0
0 0 0 0 0 0 0 0 0 0 0 0 0 0 0 0 0 0 0 0 0 0 0 0 0 0 0 0 0 0 0 0 0 0 0 0 0 0 0 0 0 0 0 0
0 0 0 0 0 0 0 0 0 0 0 0 0 0 0 0 0 0 0 0 0 0 0 0 0 0 0 0 0 0 0 0 0 0 0 0 0 0 0 0 0 0 0 0
0 0 0 0 0 0 0 0 0 0 0 0 0 0 0 0 0 0 0 0 0 0 0 0 0 0 0 0 0 0 0 0 0 0 0 0 0 0 0 0 0 0 0 0
0 0 0 0 0 0 0 0 0 0 0 0 0 0 0 0 0 0 0 0 0 0 0 0 0 0 0 0 0 0 0 0 0 0 0 0 0 0 0 0 0 0 0 0
0 0 0 0 0 0 0 0 0 0 0 0 0 0 0 0 0 0 0 0 0 0 0 0 0 0 0 0 0 0 0 0 0 0 0 0 0 0 0 0 0 0 0 0
0 0 0 0 0 0 0 0 0 0 0 0 0 0 0 0 0 0 0 0 0 0 0 0 0 0 0 0 0 0 0 0 0 0 0 0 0 0 0 0 0 0 0 0
0 0 0 0 0 0 0 0 0 0 0 0 0 0 0 0 0 0 0 0 0 0 0 0 0 0 0 0 0 0 0 0 0 0 0 0 0 0 0 0 0 0 0 0
0 0 0 0 0 0 0 0 0 0 0 0 0 0 0 0 0 0 0 0 0 0 0 0 0 0 0 0 0 0 0 0 0 0 0 0 0 0 0 0 0 0 0 0
0 0 0 0 0 0 0 0 0 0 0 0 0 0 0 0 0 0 0 0 0 0 0 0 0 0 0 0 0 0 0 0 0 0 0 0 0 0 0 0 0 0 0 0
0 0 0 0 0 0 0 0 0 0 0 0 0 0 0 0 0 0 0 0 0 0 0 0 0 0 0 0 0 0 0 0 0 0 0 0 0 0 0 0 0 0 0 0
0 0 0 0 0 0 0 0 0 0 0 0 0 0 0 0 0 0 0 0 0 0 0 0 0 0 0 0 0 0 0 0 0 0 0 0 0 0 0 0 0 0 0 0
0 0 0 0 0 0 0 0 0 0 0 0 0 0 0 0 0 0 0 0 0 0 0 0 0 0 0 0 0 0 0 0 0 0 0 0 0 0 0 0 0 0 0 0
0 0 0 0 0 0 0 0 0 0 0 0 0 0 0 0 0 0 0 0 0 0 0 0 0 0 0 0 0 0 0 0 0 0 0 0 0 0 0 0 0 0 0 0
0 0 0 0 0 0 0 0 0 0 0 0 0 0 0 0 0 0 0 0 0 0 0 0 0 0 0 0 0 0 0 0 0 0 0 0 0 0 0 0 0 0 0 0
Wind_Speed
6 5 4 6 9 8 9 10 11 10 11 12 8 4 2 0 1 2 2 3 4 5 5 6 6 6 6 7 7 6 6 7 8 8 8 8 8 8 8 8 9 9 9 10
3 5 5 10 13 12 11 9 10 11 13 6 1 3 1 1 1 1 3 4 5 6 7 7 7 6 6 7 7 7 7 8 9 8 8 8 9 8 8 9 9 9 9 10
4 3 6 11 10 7 6 7 8 9 6 1 2 1 0 0 0 2 4 6 7 7 7 7 7 6 6 7 7 7 8 9 9 9 9 9 9 9 9 9 9 9 10 10
2 0 9 10 3 3 4 3 2 1 1 2 1 2 2 2 1 4 6 7 7 7 7 6 5 6 6 7 7 8 8 9 9 9 10 10 9 10 10 9 9 9 10 11
4 4 10 10 5 2 2 0 1 3 1 0 1 2 3 2 2 4 6 7 7 7 6 6 6 6 7 8 8 8 9 10 10 10 10 10 10 11 10 9 9 9 9 10
5 5 9 9 4 1 2 2 0 2 1 2 2 3 5 5 6 7 8 7 6 6 5 6 7 6 7 9 9 10 10 10 10 10 11 11 12 11 10 9 10 10 9 10
6 5 10 8 5 2 3 4 0 2 1 1 2 6 7 7 7 7 8 8 7 6 6 7 7 7 8 9 10 11 11 11 11 10 11 11 11 10 10 10 10 10 11 10
6 6 11 4 2 3 3 1 1 0 2 4 6 8 8 7 7 7 7 7 6 6 7 7 7 7 10 11 12 11 11 11 11 11 10 10 10 11 10 11 11 11 10 10
10 9 3 2 4 3 3 2 2 3 5 6 6 6 6 6 7 7 7 7 6 6 8 8 8 7 11 13 12 12 12 11 11 11 10 9 10 11 11 9 9 9 9 9
4 4 1 3 4 2 2 3 4 4 5 4 5 6 7 7 6 7 6 7 6 7 9 11 10 9 10 13 13 13 13 12 11 11 11 9 8 8 9 9 10 10 10 10
4 3 1 2 2 2 2 1 2 3 3 4 5 6 6 6 7 6 6 6 6 8 10 13 12 11 11 11 12 12 13 12 11 10 11 10 9 9 11 10 12 13 10 9
6 4 3 3 2 1 2 3 3 3 4 5 4 6 6 6 6 6 8 8 9 10 11 13 13 13 12 10 10 12 12 11 9 9 9 9 10 11 15 18 23 24 22 20
3 2 3 3 2 1 2 3 3 3 4 5 5 5 6 6 6 7 9 10 11 12 12 13 13 13 12 11 10 11 12 12 9 9 9 10 10 11 13 14 18 20 21 21
2 2 2 2 2 3 3 3 3 3 4 5 5 6 7 7 8 10 11 11 12 12 13 13 13 14 12 11 11 12 12 14 13 9 9 10 10 11 11 12 12 10 12 18
2 2 3 3 3 3 2 2 4 5 6 6 6 7 8 10 11 12 12 11 12 12 13 13 14 15 12 12 12 12 11 9 9 9 9 10 10 11 10 11 11 11 10 11
2 2 2 2 3 3 3 4 5 6 7 7 8 9 10 10 12 12 12 10 11 14 14 13 14 14 13 12 12 10 9 18 18 11 10 10 10 10 10 10 10 10 10 9
3 3 2 3 4 4 5 5 6 8 8 9 11 11 11 11 12 12 12 10 10 12 13 13 14 13 12 11 11 10 9 12 19 14 10 10 10 10 10 10 10 10 9 11
3 3 3 4 5 6 7 7 8 9 10 11 11 11 11 11 13 14 13 12 11 11 11 12 12 12 11 11 10 9 9 10 10 11 10 10 11 10 10 10 11 11 9 9
1 2 4 5 6 6 7 9 10 9 10 10 11 12 12 11 11 13 12 11 12 14 12 9 18 15 11 13 16 9 10 11 11 10 10 14 13 9 10 10 10 9 9 8
4 4 6 7 7 8 9 11 11 11 10 10 11 12 12 12 11 11 11 10 10 10 11 13 13 10 10 11 17 9 10 11 11 11 10 10 10 10 9 10 9 8 8 7
6 7 8 9 10 10 11 11 11 12 12 10 10 12 13 13 11 9 9 11 10 10 11 17 10 8 9 13 17 9 9 10 11 11 10 10 10 10 9 9 8 8 7 7
7 8 9 10 11 12 11 10 10 12 12 11 11 11 12 12 11 9 9 9 10 15 11 7 7 13 18 20 9 8 10 11 11 10 10 10 9 10 9 9 8 7 7 6
8 9 10 11 11 12 12 10 10 11 12 12 12 12 12 11 8 9 10 7 7 14 12 7 14 23 26 13 8 9 11 11 11 10 10 10 9 9 8 8 7 7 6 6
9 10 10 11 10 11 13 13 11 10 11 12 11 11 11 9 8 7 8 13 17 19 9 13 22 24 22 8 8 9 10 10 10 10 9 9 8 7 7 7 7 6 6 5
10 10 10 10 10 10 12 12 11 10 10 9 10 10 8 7 8 8 7 9 14 16 9 12 20 22 13 8 9 10 10 10 11 11 9 9 8 7 7 7 6 6 5 4
10 9 9 10 10 10 9 9 9 8 8 9 8 7 6 6 7 7 7 8 10 15 10 7 9 12 8 8 9 10 10 11 11 9 9 9 8 8 7 6 6 5 4 3
9 9 8 9 8 8 8 8 9 9 8 8 9 7 7 6 6 7 8 8 8 8 7 7 7 7 8 8 9 10 9 9 9 9 9 8 7 7 6 6 5 4 3 2
Wind_Direction
242 251 242 243 250 240 223 215 232 249 253 267 270 258 208 170 358 357 342 332 321 308 299 299 300 300 302 303 305 307 307 304 295 292 291 290 288 284 282 280 277 275 276 276
273 271 279 275 263 250 242 231 236 260 272 276 161 132 124 35 9 347 317 309 304 301 298 295 294 296 300 300 302 305 303 298 296 297 297 294 289 286 284 282 280 278 275 274
262 304 340 279 255 234 226 224 212 232 245 165 124 133 270 312 336 294 294 291 291 290 285 285 286 290 295 294 299 303 300 298 299 298 296 293 291 290 286 284 280 279 275 273
203 6 249 246 240 226 237 259 238 181 121 129 197 255 261 186 219 287 290 288 285 281 282 284 287 293 293 297 302 302 300 298 297 296 293 292 291 288 285 281 279 278 277 275
157 224 277 289 282 226 185 267 63 113 106 329 292 335 304 238 265 277 279 279 277 275 277 284 292 295 302 304 304 303 300 298 296 294 293 293 291 288 286 285 283 278 276 276
163 199 245 254 265 269 80 242 278 107 71 348 25 347 281 280 295 292 290 288 287 290 293 297 299 305 305 302 302 299 297 295 295 292 290 291 289 288 286 284 283 283 280 276
175 216 260 257 268 130 192 247 10 64 42 347 246 238 257 280 285 282 286 290 293 298 297 293 299 306 302 301 298 295 294 294 294 290 288 289 288 287 289 288 287 285 283 279
162 200 250 262 120 140 197 138 96 251 260 259 255 263 274 281 283 290 294 295 299 300 297 296 300 303 301 299 297 296 294 294 293 290 289 294 291 292 290 289 290 289 286 285
189 207 215 89 107 110 130 160 229 248 260 261 267 275 283 286 289 291 292 294 296 295 298 299 297 295 296 300 301 301 298 295 294 293 289 288 289 293 295 291 289 290 288 289
225 258 147 114 116 125 184 211 240 253 266 271 278 286 291 289 290 294 295 298 298 303 304 304 302 295 288 295 300 300 299 298 297 297 297 291 285 287 290 291 289 289 289 288
247 268 111 148 168 205 224 245 276 287 276 282 289 293 292 294 295 294 294 294 295 297 299 301 303 299 295 295 299 299 298 297 298 294 294 296 290 286 289 281 282 290 289 286
229 223 194 248 259 283 317 308 298 305 310 313 304 294 298 296 292 293 296 298 300 299 298 301 303 302 301 298 296 298 302 301 299 297 296 294 296 296 290 289 293 293 292 292
203 193 193 227 249 262 278 285 290 298 299 305 305 297 297 295 292 295 298 300 299 299 298 300 302 302 304 303 301 297 297 299 298 295 296 297 297 298 300 300 296 295 295 297
191 169 209 227 255 286 290 297 308 308 298 289 287 293 294 292 293 296 295 294 294 295 297 298 300 302 305 306 303 299 297 298 300 296 295 294 294 295 295 299 303 300 297 299
206 185 218 252 286 306 314 321 321 310 302 299 293 293 292 292 293 292 292 292 294 293 296 299 300 302 305 305 302 300 299 296 294 292 292 293 294 294 294 294 295 297 298 298
258 282 279 286 303 308 314 312 302 294 293 291 292 289 285 284 285 289 290 290 293 297 299 299 298 299 302 302 299 298 295 301 307 302 298 297 296 296 297 296 295 295 297 299
242 273 280 287 292 294 288 279 273 276 281 283 282 284 287 289 291 292 292 288 282 285 290 292 293 296 297 295 295 296 294 297 303 303 295 294 295 296 296 295 294 294 294 297
217 235 248 255 268 280 286 283 277 275 275 276 281 285 286 288 290 294 296 297 295 291 287 284 287 297 295 295 296 293 294 294 294 294 295 297 298 296 295 293 294 295 298 301
321 295 290 282 274 271 274 278 277 274 275 279 282 283 283 282 283 287 293 296 299 300 295 287 303 308 297 297 305 296 294 295 297 298 298 301 302 295 293 294 296 297 298 298
310 299 292 286 280 272 272 276 277 278 277 275 278 282 285 285 283 285 288 286 280 279 286 296 299 294 294 297 305 298 299 302 302 302 301 298 297 296 296 296 296 298 297 298
296 292 288 284 283 279 273 274 276 279 280 277 275 278 283 286 285 283 287 292 287 281 288 301 306 300 300 305 309 306 304 303 303 302 301 299 299 298 298 297 299 301 301 301
284 282 281 280 280 282 279 273 271 275 280 281 277 276 281 285 285 280 269 272 285 297 303 294 295 304 313 318 311 306 304 304 303 301 299 298 298 300 301 303 304 303 302 299
276 275 276 277 278 280 284 281 275 275 277 277 278 279 278 279 282 285 291 284 284 299 306 293 306 315 320 322 310 305 304 304 303 302 301 300 300 301 304 304 304 304 301 299
277 278 277 277 280 283 285 283 278 274 272 273 272 270 273 279 279 267 269 291 302 306 303 303 314 319 324 318 305 303 302 303 302 300 300 301 301 302 301 301 302 302 300 299
276 277 278 280 281 280 280 283 284 281 277 275 272 269 266 261 268 280 282 284 295 305 301 306 314 319 318 303 303 303 303 303 304 306 304 304 304 303 300 299 301 303 300 297
278 279 279 275 274 278 281 282 283 283 283 283 282 276 271 268 269 275 281 283 284 297 302 298 299 306 304 302 303 304 306 307 308 306 302 303 301 300 300 301 301 299 297 295
280 278 280 282 278 272 273 276 280 282 282 282 286 284 279 277 278 280 283 285 286 288 289 292 293 295 298 300 303 305 307 306 306 305 304 302 301 300 300 300 298 297 294 290